Harbor Springs, MI

8:14 PM EST on December 06, 2019 (GMT -0500)
Harbor Springs

Weather History for KMGN - November, 2019

Change the Weather History Date:

Saturday, November 16, 2019

  Actual Average (KPLN) Record (KPLN)
Temperature  
Mean Temperature 20 °F -  
Max Temperature 35 °F 42 °F 63 °F (1981)
Min Temperature 6 °F 26 °F -4 °F (2019)
Degree Days  
Heating Degree Days 44    
Moisture  
Dew Point 12 °F    
Average Humidity 68    
Maximum Humidity 95    
Minimum Humidity 38    
Precipitation  
Precipitation 0.00 in - - ()
Sea Level Pressure  
Sea Level Pressure 30.43 in    
Wind  
Wind Speed 4 mph ()    
Max Wind Speed 8 mph    
Max Gust Speed -    
Visibility 10.0 miles    
Events      
Averages and records for this station are not official NWS values.
T = Trace of Precipitation, MM = Missing Value Source: Averaged Metar Reports

Daily Weather History Graph

Daily Weather History Graph

Search for Another Location

Airport or City:

Astronomy

Nov. 16, 2019 Rise Set
Actual Time 7:39 AM EST 5:08 PM EST
Civil Twilight 7:07 AM EST 5:40 PM EST
Nautical Twilight 6:31 AM EST 6:16 PM EST
Astronomical Twilight 5:56 AM EST 6:51 PM EST
Moon 8:35 PM EST (11/16) 11:38 AM EST (11/16)
Length of Visible Light 10h 33m
Length of Day
9h 29m
Waning Gibbous, 82% of the Moon is Illuminated
Nov 16
Waning Gibbous
Nov 19
Last Quarter
Nov 26
New
Dec 4
First Quarter
Dec 12
Full

Hourly Weather History & Observations

Time (EST) Temp. Windchill Dew Point Humidity Pressure Visibility Wind Dir Wind Speed Gust Speed Precip Events Conditions
12:15 AM 10.2 °F 0.6 °F 7.5 °F 89% 30.50 in 10.0 mi NE 5.8 mph - N/A   Clear
12:35 AM 9.7 °F 3.2 °F 7.5 °F 91% 30.50 in 10.0 mi ENE 3.5 mph - N/A   Clear
12:36 AM 9.5 °F 3.0 °F 7.5 °F 92% 30.50 in 10.0 mi ENE 3.5 mph - N/A   Clear
12:55 AM 10.8 °F - 9.1 °F 93% 30.50 in 10.0 mi Calm Calm - N/A   Clear
1:15 AM 10.0 °F - 7.9 °F 91% 30.50 in 10.0 mi Calm Calm - N/A   Clear
1:35 AM 10.4 °F 4.0 °F 8.4 °F 92% 30.50 in 10.0 mi NNE 3.5 mph - N/A   Clear
1:36 AM 10.2 °F 3.8 °F 8.1 °F 91% 30.50 in 10.0 mi NNE 3.5 mph - N/A   Clear
1:55 AM 9.3 °F - 8.1 °F 95% 30.51 in 10.0 mi Calm Calm - N/A   Clear
1:56 AM 9.5 °F - 8.2 °F 95% 30.51 in 10.0 mi Calm Calm - N/A   Clear
2:15 AM 9.9 °F 3.4 °F 8.2 °F 93% 30.51 in 10.0 mi NE 3.5 mph - N/A   Clear
2:16 AM 9.7 °F 3.2 °F 8.1 °F 93% 30.51 in 10.0 mi NE 3.5 mph - N/A   Clear
2:35 AM 9.1 °F 2.6 °F 7.7 °F 94% 30.52 in 10.0 mi NE 3.5 mph - N/A   Clear
2:36 AM 9.1 °F 2.6 °F 7.7 °F 94% 30.52 in 10.0 mi NE 3.5 mph - N/A   Clear
2:55 AM 8.2 °F -0.3 °F 6.8 °F 94% 30.51 in 10.0 mi NE 4.6 mph - N/A   Clear
3:15 AM 7.9 °F -2.2 °F 6.3 °F 93% 30.51 in 10.0 mi NE 5.8 mph - N/A   Clear
3:35 AM 8.4 °F - 7.3 °F 95% 30.51 in 10.0 mi Calm Calm - N/A   Clear
3:55 AM 7.5 °F -2.6 °F 5.9 °F 93% 30.50 in 10.0 mi NE 5.8 mph - N/A   Clear
4:15 AM 8.4 °F 1.8 °F 6.8 °F 93% 30.50 in 10.0 mi NE 3.5 mph - N/A   Clear
4:35 AM 7.2 °F -1.5 °F 5.4 °F 92% 30.50 in 10.0 mi NE 4.6 mph - N/A   Clear
4:55 AM 7.3 °F -2.8 °F 5.4 °F 92% 30.50 in 10.0 mi NE 5.8 mph - N/A   Clear
4:56 AM 7.3 °F -2.8 °F 5.4 °F 92% 30.50 in 10.0 mi NE 5.8 mph - N/A   Clear
5:15 AM 7.2 °F -1.5 °F 5.2 °F 92% 30.50 in 10.0 mi NE 4.6 mph - N/A   Clear
5:35 AM 6.4 °F -2.4 °F 4.8 °F 93% 30.50 in 10.0 mi NE 4.6 mph - N/A   Clear
5:55 AM 7.9 °F -2.2 °F 6.8 °F 95% 30.50 in 10.0 mi ENE 5.8 mph - N/A   Clear
6:15 AM 7.3 °F - 5.9 °F 94% 30.51 in 10.0 mi Calm Calm - N/A   Clear
6:35 AM 7.0 °F -3.3 °F 5.2 °F 92% 30.51 in 10.0 mi NE 5.8 mph - N/A   Clear
6:55 AM 8.1 °F -2.0 °F 6.8 °F 95% 30.50 in 10.0 mi ENE 5.8 mph - N/A   Clear
6:56 AM 8.1 °F -2.0 °F 6.8 °F 95% 30.50 in 10.0 mi ENE 5.8 mph - N/A   Clear
7:15 AM 8.6 °F -1.3 °F 7.5 °F 95% 30.50 in 10.0 mi NE 5.8 mph - N/A   Clear
7:35 AM 8.1 °F -2.0 °F 5.9 °F 91% 30.51 in 10.0 mi ENE 5.8 mph - N/A   Clear
7:55 AM 8.2 °F -3.0 °F 6.8 °F 94% 30.51 in 10.0 mi ENE 6.9 mph - N/A   Clear
8:15 AM 10.2 °F 0.6 °F 8.6 °F 93% 30.51 in 10.0 mi ENE 5.8 mph - N/A   Clear
8:16 AM 10.2 °F 0.6 °F 8.6 °F 93% 30.51 in 10.0 mi ENE 5.8 mph - N/A   Clear
8:35 AM 11.7 °F 3.7 °F 10.2 °F 94% 30.52 in 10.0 mi ENE 4.6 mph - N/A   Clear
8:55 AM 14.0 °F 6.5 °F 11.8 °F 91% 30.52 in 10.0 mi ENE 4.6 mph - N/A   Clear
9:16 AM 16.2 °F 5.5 °F 12.9 °F 87% 30.52 in 10.0 mi ENE 8.1 mph - N/A   Clear
9:55 AM 21.4 °F 12.8 °F 15.3 °F 77% 30.51 in 10.0 mi ENE 6.9 mph - N/A   Clear
10:15 AM 23.7 °F 15.6 °F 16.0 °F 72% 30.50 in 10.0 mi East 6.9 mph - N/A   Clear
10:16 AM 23.7 °F 15.6 °F 16.0 °F 72% 30.50 in 10.0 mi East 6.9 mph - N/A   Clear
10:35 AM 25.9 °F 20.3 °F 17.1 °F 69% 30.50 in 10.0 mi East 4.6 mph - N/A   Clear
10:36 AM 25.9 °F 20.3 °F 17.1 °F 69% 30.50 in 10.0 mi East 4.6 mph - N/A   Clear
10:55 AM 28.0 °F 24.2 °F 17.6 °F 65% 30.50 in 10.0 mi ESE 3.5 mph - N/A   Clear
10:56 AM 28.0 °F - 17.6 °F 65% 30.50 in 10.0 mi Calm Calm - N/A   Clear
11:15 AM 29.8 °F 23.0 °F 18.5 °F 63% 30.49 in 10.0 mi ESE 6.9 mph - N/A   Clear
11:35 AM 31.8 °F 25.4 °F 19.4 °F 60% 30.48 in 10.0 mi SE 6.9 mph - N/A   Clear
11:55 AM 32.2 °F 26.7 °F 19.4 °F 59% 30.47 in 10.0 mi SE 5.8 mph - N/A   Clear
12:15 PM 32.9 °F 27.5 °F 19.2 °F 57% 30.46 in 10.0 mi SSE 5.8 mph - N/A   Clear
12:35 PM 32.5 °F 27.1 °F 18.3 °F 56% 30.46 in 10.0 mi ESE 5.8 mph - N/A   Clear
12:36 PM 32.5 °F 28.1 °F 18.3 °F 56% 30.46 in 10.0 mi SE 4.6 mph - N/A   Clear
12:55 PM 33.3 °F 27.1 °F 18.3 °F 54% 30.45 in 10.0 mi SE 6.9 mph - N/A   Clear
1:15 PM 33.4 °F 27.3 °F 18.0 °F 53% 30.44 in 10.0 mi SE 6.9 mph - N/A   Clear
1:35 PM 34.2 °F 29.0 °F 18.0 °F 52% 30.43 in 10.0 mi SSE 5.8 mph - N/A   Mostly Cloudy
1:55 PM 33.8 °F 27.7 °F 17.8 °F 52% 30.42 in 10.0 mi SSE 6.9 mph - N/A   Overcast
2:15 PM 34.0 °F 29.8 °F 17.6 °F 51% 30.41 in 10.0 mi SSE 4.6 mph - N/A   Overcast
2:35 PM 34.5 °F 29.4 °F 17.2 °F 49% 30.41 in 10.0 mi SSE 5.8 mph - N/A   Overcast
2:36 PM 34.5 °F 28.6 °F 17.2 °F 49% 30.41 in 10.0 mi SSE 6.9 mph - N/A   Overcast
2:55 PM 34.3 °F 28.4 °F 16.3 °F 48% 30.40 in 10.0 mi SE 6.9 mph - N/A   Overcast
3:15 PM 34.9 °F 29.9 °F 17.6 °F 49% 30.39 in 10.0 mi SSE 5.8 mph - N/A   Overcast
3:35 PM 34.9 °F 29.0 °F 17.4 °F 49% 30.39 in 10.0 mi SE 6.9 mph - N/A   Overcast
3:55 PM 35.1 °F 30.1 °F 17.4 °F 49% 30.38 in 10.0 mi SE 5.8 mph - N/A   Overcast
3:56 PM 35.1 °F 30.1 °F 17.4 °F 49% 30.38 in 10.0 mi SE 5.8 mph - N/A   Overcast
4:15 PM 34.7 °F 28.8 °F 16.5 °F 48% 30.38 in 10.0 mi SSE 6.9 mph - N/A   Scattered Clouds
4:35 PM 34.0 °F 29.8 °F 16.0 °F 48% 30.37 in 10.0 mi ESE 4.6 mph - N/A   Clear
4:36 PM 34.0 °F 29.8 °F 16.0 °F 48% 30.37 in 10.0 mi ESE 4.6 mph - N/A   Clear
4:55 PM 32.7 °F - 15.6 °F 49% 30.35 in 10.0 mi Calm Calm - N/A   Clear
4:56 PM 32.5 °F - 15.6 °F 50% 30.35 in 10.0 mi Calm Calm - N/A   Clear
5:15 PM 32.0 °F 28.7 °F 15.3 °F 50% 30.34 in 10.0 mi East 3.5 mph - N/A   Clear
5:35 PM 32.0 °F 28.7 °F 14.9 °F 49% 30.34 in 10.0 mi East 3.5 mph - N/A   Scattered Clouds
5:55 PM 31.6 °F - 15.4 °F 51% 30.34 in 10.0 mi Calm Calm - N/A   Scattered Clouds
6:15 PM 31.5 °F - 15.3 °F 51% 30.34 in 10.0 mi Calm Calm - N/A   Scattered Clouds
6:35 PM 29.8 °F - 16.9 °F 59% 30.34 in 10.0 mi Calm Calm - N/A   Clear
6:55 PM 30.2 °F - 14.5 °F 52% 30.34 in 10.0 mi Calm Calm - N/A   Clear
6:56 PM 30.2 °F - 14.9 °F 53% 30.34 in 10.0 mi Calm Calm - N/A   Clear
7:15 PM 29.8 °F - 15.3 °F 55% 30.34 in 10.0 mi Calm Calm - N/A   Clear
7:35 PM 30.2 °F 26.7 °F 11.7 °F 46% 30.33 in 10.0 mi ESE 3.5 mph - N/A   Clear
7:55 PM 30.6 °F 25.8 °F 10.2 °F 43% 30.33 in 10.0 mi ESE 4.6 mph - N/A   Clear
8:15 PM 30.6 °F 27.1 °F 9.0 °F 40% 30.32 in 10.0 mi ESE 3.5 mph - N/A   Scattered Clouds
8:35 PM 30.6 °F 27.1 °F 8.4 °F 39% 30.32 in 10.0 mi ESE 3.5 mph - N/A   Scattered Clouds
8:36 PM 30.6 °F 27.1 °F 8.4 °F 39% 30.32 in 10.0 mi ESE 3.5 mph - N/A   Scattered Clouds
8:55 PM 30.2 °F 26.7 °F 7.0 °F 38% 30.31 in 10.0 mi ESE 3.5 mph - N/A   Scattered Clouds
9:15 PM 29.8 °F 26.3 °F 7.5 °F 39% 30.31 in 10.0 mi SE 3.5 mph - N/A   Scattered Clouds
9:35 PM 29.5 °F 24.5 °F 7.7 °F 40% 30.30 in 10.0 mi ESE 4.6 mph - N/A   Clear
9:36 PM 29.5 °F 25.9 °F 7.7 °F 40% 30.30 in 10.0 mi ESE 3.5 mph - N/A   Clear
9:55 PM 28.6 °F - 8.1 °F 42% 30.29 in 10.0 mi Calm Calm - N/A   Clear
10:15 PM 28.2 °F 24.4 °F 9.1 °F 45% 30.29 in 10.0 mi ESE 3.5 mph - N/A   Clear
10:16 PM 28.2 °F 24.4 °F 9.1 °F 45% 30.29 in 10.0 mi East 3.5 mph - N/A   Clear
10:35 PM 27.3 °F - 11.1 °F 51% 30.28 in 10.0 mi Calm Calm - N/A   Clear
10:55 PM 27.7 °F 23.8 °F 12.0 °F 52% 30.27 in 10.0 mi East 3.5 mph - N/A   Clear
11:15 PM 28.0 °F - 12.0 °F 51% 30.28 in 10.0 mi Calm Calm - N/A   Clear
11:16 PM 28.2 °F - 12.0 °F 51% 30.28 in 10.0 mi Calm Calm - N/A   Clear
11:35 PM 28.0 °F - 11.8 °F 51% 30.27 in 10.0 mi Calm Calm - N/A   Clear
11:36 PM 27.9 °F - 11.8 °F 51% 30.27 in 10.0 mi Calm Calm - N/A   Clear
11:55 PM 26.6 °F - 12.2 °F 55% 30.27 in 10.0 mi Calm Calm - N/A   Clear